Weather Roundup
Issued by NWS Springfield, MO

Home | Current Version | Previous Version | Text Only | Print | Product List | Glossary On
Versions: 1 2 3 4 5 6 7 8 9 10 11 12 13 14 15 16 17 18 19 20 21 22 23 24 25 26 27 28 29 30 31 32 33 34 35 36 37 38 39 40 41 42 43 44 45 46 47 48 49 50
000
NZUS99 KSGF 301307
HRRSGF

HOURLY WEATHER
NATIONAL WEATHER SERVICE SPRINGFIELD MO
800 AM CDT SAT APR 30 2016

......SGF CWA......

CITY           SKY/WX    TMP DP  RH WIND       PRES   REMARKS
SPRINGFIELD    CLOUDY    63  60  90 S12       29.68S
JOPLIN         CLOUDY    64  62  93 SW16      29.68R
WEST PLAINS    CLOUDY    63  59  87 S7        29.75R
ROLLA          CLOUDY    60  58  92 SE3       29.72R
OSAGE BEACH    CLOUDY    59  52  77 E3        29.71S
BRANSON        CLOUDY    63  63 100 CALM      29.71S

......SURROUNDING SGF CWA......

CITY           SKY/WX    TMP DP  RH WIND       PRES   REMARKS
CHANUTE        CLOUDY    60  56  86 W13       29.67R
PARSONS        CLOUDY    60  58  92 SW6       29.70R
COFFEYVILLE    CLOUDY    61  57  87 SW10      29.70R
EMPORIA        CLOUDY    52  50  93 W6        29.67R
GROVE OK       CLOUDY    64  63  94 SW8       29.71R
ROGERS AR      CLOUDY    63  61  93 SW12      29.73R
SILOAM SPRINGS CLOUDY    63  55  77 SW12      29.73R
HARRISON AR    CLOUDY    63  61  93 S7        29.72S
NEAR YELLVILLE CLOUDY   N/A N/A N/A CALM      29.70R

......KANSAS AND MISSOURI......

CITY           SKY/WX    TMP DP  RH WIND       PRES   REMARKS
KANSAS CTY INT LGT RAIN  56  55  97 E6        29.66R VSB 1
DOWNTOWN KC    LGT RAIN  60  58  92 E6        29.65S
COLUMBIA       LGT RAIN  58  57  97 SE10      29.71F FOG
SEDALIA        LGT RAIN  60  58  92 SE13      29.69S FOG
ST JOSEPH      LGT RAIN  52  50  93 E14       29.66S FOG
ST LOUIS       LGT RAIN  60  57  89 E16G25    29.76F FOG
SPIRIT OF STL  CLOUDY    60  58  92 E8G20     29.72F
KIRKSVILLE     CLOUDY    50  48  93 E12       29.76R FOG
WICHITA        CLOUDY    50  46  86 W14       29.74R
TOPEKA         CLOUDY    57  56  96 CALM      29.64S
OLATHE         CLOUDY    58  57  97 S9        29.65R

......TENNESSEE......

CITY           SKY/WX    TMP DP  RH WIND       PRES   REMARKS
MEMPHIS        RAIN      65  62  90 W8G21     29.89R FOG
NASHVILLE      LGT RAIN  64  61  90 E5        29.95R

......ARKANSAS.......

CITY           SKY/WX    TMP DP  RH WIND       PRES   REMARKS
FAYETTEVILLE   CLOUDY    63  62  97 SW12      29.73R
FT SMITH       CLOUDY    65  62  90 CALM      29.73R
LITTLE ROCK    CLOUDY    65  61  87 SE8       29.75S

......OKLAHOMA.......

CITY           SKY/WX    TMP DP  RH WIND       PRES   REMARKS
TULSA          CLOUDY    58  55  90 W13       29.73R
PONCA CITY     CLOUDY    50  47  89 W10       29.76R
MCALESTER      FOG       62  60  93 NW10      29.76R VSB 1
OKLAHOMA CITY  MOSUNNY   50  46  86 NW13      29.78S

......IOWA............

CITY           SKY/WX    TMP DP  RH WIND       PRES   REMARKS
DES MOINES     LGT RAIN  46  42  86 E18G26    29.81S FOG
QUAD CITIES    LGT RAIN  47  43  86 E16       29.92F FOG

......ILLINOIS........

CITY           SKY/WX    TMP DP  RH WIND       PRES   REMARKS
QUINCY         LGT RAIN  51  50  96 E17G26    29.75F FOG
CHICAGO        CLOUDY    47  42  83 E12       30.04F HAZE



USA.gov is the U.S. government's official web portal to all federal, state and local government web resources and services.